Regional Weather Roundup
Issued by NWS Cleveland, OH

Home | Current Version | Previous Version | Graphics & Text | Print | Product List | Glossary On
Versions: 1 2 3 4 5 6 7 8 9 10 11 12 13 14 15 16 17 18 19 20 21 22 23 24 25 26 27 28 29 30 31 32 33 34 35 36 37 38 39 40 41 42 43 44 45 46 47 48 49 50
000
ASUS41 KCLE 220610
RWRCLE
OHIO REGIONAL WEATHER ROUNDUP
NATIONAL WEATHER SERVICE WILMINGTON, OH
200 AM EDT MON SEP 22 2014

NOTE: "FAIR" INDICATES FEW OR NO CLOUDS BELOW 12,000 FEET WITH NO
SIGNIFICANT WEATHER AND/OR OBSTRUCTIONS TO VISIBILITY.

OHZ001>008-015>018-024>027-034-035-043-044-220700-
   NORTHWEST OHIO

CITY           SKY/WX    TMP DP  RH WIND       PRES   REMARKS
DEFIANCE       CLOUDY   N/A N/A N/A N12       30.08R
FINDLAY        LGT RAIN  51  47  86 N20       30.05R
TOLEDO EXPRESS CLOUDY    49  42  77 NW13G20   30.06R
TOLEDO METCALF CLOUDY    51  41  68 N15G22    30.06R
LIMA           CLEAR     51  46  83 NW8       30.06R
$$

OHZ009>014-019>023-028>033-038-089-220700-
   NORTHEAST OHIO

CITY           SKY/WX    TMP DP  RH WIND       PRES   REMARKS
CLE-HOPKINS    CLOUDY    53  49  86 NW14G24   30.01R
CLE-LAKEFRONT  LGT RAIN  55  50  83 NW22G31   29.96R
CUY CO. ARPT   NOT AVBL
LORAIN-ELYRIA  CLOUDY    57  48  72 N14       30.00R
ASHTABULA      CLOUDY    52  48  86 N14G21    29.94R
AKRON-CANTON   CLOUDY    53  48  83 NW10      29.96R
WOOSTER        CLOUDY    53  49  86 NW12G17   30.00R
MANSFIELD      CLOUDY    51  49  92 NW13G21   30.01R
YOUNGSTOWN     LGT RAIN  52  50  93 NW10      29.93R
$$

OHZ042-051>053-060>062-070>072-077>081-220700-
  SOUTHWEST OHIO

CITY           SKY/WX    TMP DP  RH WIND       PRES   REMARKS
CINC-COVINGTON CLEAR     54  47  77 NW7       30.08R
CINC-LUNKEN    CLEAR     55  48  77 N8        30.09R
HAMILTON       CLEAR     52  47  83 NW6       30.09R
DAYTON         CLEAR     52  48  86 NW12      30.07R
WRIGHT-PAT AFB CLEAR     53  48  83 NW7       30.05S
DAYTON GENERAL CLEAR     53  48  83 NW7       30.05S
WILMINGTON     CLEAR     53  47  79 NW9       30.04R
$$

OHZ036-037-039>041-045>050-054>059-063>069-073>076-082>088-220700-
  CENTRAL AND SOUTHEAST OHIO

CITY           SKY/WX    TMP DP  RH WIND       PRES   REMARKS
COLUMBUS       MOCLDY    57  46  66 NW9       30.02R
OSU AIRPORT    CLOUDY    54  49  83 NW8       30.03R
BOLTON FIELD   CLOUDY    54  48  80 N10G16    30.03S
RICKENBACK AFB CLOUDY    54  48  81 NW9       30.02S
NEWARK         PTCLDY    52  47  83 NW5       30.01R
MARION         CLOUDY    53  49  86 NW6       30.03S
LANCASTER      CLOUDY    55  46  71 N9G18     30.03R
ZANESVILLE     CLOUDY    55  49  80 NW13      29.99R
NEW PHILLY     MOCLDY    54  48  80 NW10      29.98R
$$


USA.gov is the U.S. government's official web portal to all federal, state and local government web resources and services.